DW5212 Weather Reports


time (UTC)temp
F
wind
direction
speed
knots
gust
knots
rain 1hr
in
rain 24hr
in
rain mn
in
humidity
%
barometer
mb
20260506135506 74 188 0.0 0.0 0.00 0.00 0.00 93 1011.6
20260506135007 74 188 0.0 0.0 0.00 0.00 0.00 93 1011.6
20260506134506 73 217 0.0 0.0 0.00 0.00 0.00 94 1011.7
20260506134008 73 161 0.0 0.0 0.00 0.00 0.00 93 1011.6
20260506133506 73 162 0.0 0.0 0.00 0.00 0.00 93 1011.7
20260506133008 73 184 0.0 1.7 0.00 0.00 0.00 93 1011.6
20260506132507 73 184 0.0 1.7 0.00 0.00 0.00 93 1011.6
20260506132007 73 194 0.0 1.7 0.00 0.00 0.00 93 1011.6
20260506131507 73 191 0.0 0.0 0.00 0.00 0.00 93 1011.5
20260506131008 73 192 0.0 0.9 0.00 0.00 0.00 93 1011.5
20260506130506 73 192 0.0 0.9 0.00 0.00 0.00 93 1011.4
20260506125506 73 192 0.0 1.7 0.00 0.00 0.00 93 1011.4
20260506125008 73 258 0.0 1.7 0.00 0.00 0.00 93 1011.4
20260506124008 73 205 0.0 1.7 0.00 0.00 0.00 93 1011.3
20260506123507 72 205 0.0 0.9 0.00 0.00 0.00 93 1011.3
20260506122506 72 223 0.9 2.6 0.00 0.00 0.00 92 1011.0
20260506121007 72 183 0.0 2.6 0.00 0.00 0.00 92 1010.8
20260506120507 72 196 0.0 0.9 0.00 0.00 0.00 92 1010.6
20260506120009 72 196 0.0 0.9 0.00 0.00 0.00 92 1010.8
20260506115507 72 219 0.0 0.0 0.00 0.00 0.00 92 1010.8
20260506115009 72 219 0.0 1.7 0.00 0.00 0.00 92 1010.7
20260506114508 72 219 0.0 1.7 0.00 0.00 0.00 92 1010.6
20260506114006 72 194 0.0 1.7 0.00 0.00 0.00 92 1010.4
20260506111006 72 249 0.0 2.6 0.00 0.00 0.00 91 1010.1
20260506110507 72 236 0.0 0.0 0.00 0.00 0.00 91 1010.1
20260506110007 72 172 0.0 0.0 0.00 0.00 0.00 91 1010.0
20260506105505 72 236 0.0 0.0 0.00 0.00 0.00 91 1010.0
20260506104506 73 236 0.0 1.7 0.00 0.00 0.00 91 1010.1
20260506104006 73 236 0.9 3.5 0.00 0.00 0.00 91 1010.1
20260506103506 73 237 0.9 3.5 0.00 0.00 0.00 91 1009.9
20260506102506 73 229 0.9 3.5 0.00 0.00 0.00 91 1009.9
20260506102008 73 223 0.9 3.5 0.00 0.00 0.00 91 1009.8
20260506101506 73 234 0.9 3.5 0.00 0.00 0.00 90 1009.7
20260506100505 73 176 0.0 2.6 0.00 0.00 0.00 90 1009.9
20260506100008 73 233 0.9 3.5 0.00 0.00 0.00 90 1009.9
20260506095507 73 232 0.9 7.8 0.00 0.00 0.00 90 1009.7
20260506095006 73 285 0.9 3.5 0.00 0.00 0.00 90 1009.6
20260506094506 73 209 0.9 2.6 0.00 0.00 0.00 90 1009.7
20260506094007 73 224 0.9 3.5 0.00 0.00 0.00 90 1009.7
20260506093505 73 224 0.9 4.3 0.00 0.00 0.00 90 1009.7
20260506093008 73 234 0.9 3.5 0.00 0.00 0.00 90 1009.7
20260506092007 73 231 0.0 3.5 0.00 0.00 0.00 90 1009.7
20260506091505 73 327 0.0 1.7 0.00 0.00 0.00 89 1009.7
20260506091007 73 167 0.9 3.5 0.00 0.00 0.00 89 1009.6
20260506090010 73 195 0.0 5.2 0.00 0.00 0.00 89 1009.7
20260506085506 73 257 0.9 3.5 0.00 0.00 0.00 89 1009.9
20260506085006 73 232 1.7 5.2 0.00 0.00 0.00 89 1010.0
20260506084506 73 259 1.7 5.2 0.00 0.00 0.00 89 1010.0
20260506084007 73 226 0.9 6.1 0.00 0.00 0.00 89 1010.0
20260506083505 73 234 0.9 6.1 0.00 0.00 0.00 89 1010.2
20260506083008 73 246 0.9 3.5 0.00 0.00 0.00 89 1010.2
20260506082506 73 188 0.9 4.3 0.00 0.00 0.00 89 1010.1
20260506082006 73 209 0.9 5.2 0.00 0.00 0.00 89 1010.1
20260506081506 73 191 1.7 4.3 0.00 0.00 0.00 89 1010.1
20260506081006 73 204 1.7 4.3 0.00 0.00 0.00 89 1010.2
20260506080505 73 246 1.7 4.3 0.00 0.00 0.00 89 1010.2
20260506073506 73 92 1.7 7.0 0.00 0.00 0.00 89 1010.1
20260506073008 73 252 1.7 5.2 0.00 0.00 0.00 89 1010.2
20260506072507 73 234 1.7 4.3 0.00 0.00 0.00 89 1010.2
20260506072007 73 202 1.7 5.2 0.00 0.00 0.00 89 1010.1
20260506071506 73 243 0.9 4.3 0.00 0.00 0.00 89 1010.1
20260506071006 73 232 1.7 4.3 0.00 0.00 0.00 89 1010.1
20260506070506 73 163 1.7 6.1 0.00 0.00 0.00 89 1010.2
20260506062506 73 169 0.9 5.2 0.00 0.00 0.00 89 1010.0
20260506061007 73 160 1.7 6.1 0.00 0.00 0.00 89 1009.8
20260506060505 73 228 1.7 7.0 0.00 0.00 0.00 88 1009.9
20260506051009 74 226 1.7 7.0 0.00 0.00 0.00 88 1009.9
20260506045008 74 209 1.7 8.7 0.00 0.00 0.00 88 1009.9
20260506043507 74 234 0.9 5.2 0.00 0.00 0.00 88 1009.8
20260506042507 74 207 1.7 8.7 0.00 0.00 0.00 87 1009.9
20260506042008 74 259 1.7 8.7 0.00 0.00 0.00 87 1009.7
20260506040014 74 189 1.7 8.7 0.00 0.00 0.00 88 1010.0
20260506035506 74 187 0.9 4.3 0.00 0.00 0.00 88 1010.0
20260506035009 74 172 0.9 3.5 0.00 0.00 0.00 88 1010.0
20260506034508 74 191 1.7 6.1 0.00 0.00 0.00 87 1010.1
20260506033508 74 236 0.9 7.0 0.00 0.00 0.00 87 1009.9
20260506033009 74 153 1.7 7.0 0.00 0.00 0.00 87 1009.6
20260506032506 74 189 1.7 7.8 0.00 0.00 0.00 87 1009.6
20260506032009 74 183 0.9 7.8 0.00 0.00 0.00 87 1009.6
20260506031507 74 303 0.9 7.8 0.00 0.00 0.00 87 1009.5
20260506031009 74 48 0.9 5.2 0.00 0.00 0.00 87 1009.3
20260506030507 74 192 1.7 5.2 0.00 0.00 0.00 87 1009.4
20260506030009 75 231 1.7 5.2 0.00 0.00 0.00 87 1009.3
20260506025506 75 260 1.7 5.2 0.00 0.00 0.00 87 1009.3
20260506025009 75 266 1.7 7.8 0.00 0.00 0.00 86 1009.3
20260506024008 75 231 1.7 4.3 0.00 0.00 0.00 86 1009.1
20260506023506 75 246 1.7 5.2 0.00 0.00 0.00 86 1008.9
20260506023009 75 119 1.7 5.2 0.00 0.00 0.00 86 1008.9
20260506022507 75 209 1.7 4.3 0.00 0.00 0.00 86 1008.8
20260506020507 75 63 2.6 9.6 0.00 0.00 0.00 85 1008.6
20260506020011 75 184 1.7 9.6 0.00 0.00 0.00 85 1008.6
20260506015507 75 240 0.9 5.2 0.00 0.00 0.00 85 1008.5
20260506015008 75 211 1.7 4.3 0.00 0.00 0.00 85 1008.4
20260506014508 75 240 1.7 6.1 0.00 0.00 0.00 85 1008.3
20260506013508 75 130 0.9 6.1 0.00 0.00 0.00 85 1008.4
20260506013010 75 133 1.7 7.0 0.00 0.00 0.00 84 1008.3
20260506012008 75 222 0.9 3.5 0.00 0.00 0.00 84 1008.3
20260506011508 75 212 0.9 3.5 0.00 0.00 0.00 84 1008.2
20260506011008 76 169 0.9 3.5 0.00 0.00 0.00 83 1008.0
20260506010007 76 295 0.9 7.0 0.00 0.00 0.00 83 1008.0
20260506005507 76 219 0.9 3.5 0.00 0.00 0.00 83 1008.0
20260506005007 76 180 0.9 5.2 0.00 0.00 0.00 82 1008.2
20260506004508 76 221 1.7 5.2 0.00 0.00 0.00 82 1008.0
20260506004008 76 125 1.7 6.1 0.00 0.00 0.00 82 1008.1
20260506003009 77 235 0.9 3.5 0.00 0.00 0.00 82 1008.1
20260506002007 77 205 1.7 6.1 0.00 0.00 0.00 82 1008.2
20260506001507 77 179 1.7 6.1 0.00 0.00 0.00 81 1008.3
20260506001008 77 196 1.7 6.1 0.00 0.00 0.00 81 1008.4
20260506000506 77 242 1.7 7.0 0.00 0.00 0.00 81 1008.4
20260506000009 77 255 0.9 6.1 0.00 0.00 0.00 81 1008.2
20260505235507 77 227 1.7 6.1 0.00 0.00 0.00 81 1008.3
20260505234506 77 239 1.7 7.0 0.00 0.00 0.00 80 1008.2
20260505234007 77 248 1.7 7.0 0.00 0.00 0.00 80 1008.2
20260505233507 78 246 1.7 4.3 0.00 0.00 0.00 80 1008.2
20260505233009 78 226 1.7 7.0 0.00 0.00 0.00 80 1008.2
20260505232007 78 226 1.7 6.1 0.00 0.00 0.00 80 1008.2
20260505231506 78 279 2.6 7.0 0.00 0.00 0.00 80 1008.1
20260505230506 78 27 1.7 7.0 0.00 0.00 0.00 79 1008.0
20260505225506 78 215 1.7 5.2 0.00 0.00 0.00 79 1008.2
20260505225008 78 181 1.7 4.3 0.00 0.00 0.00 79 1008.2
20260505224506 78 234 1.7 7.8 0.00 0.00 0.00 79 1008.2
20260505224008 78 180 1.7 7.8 0.00 0.00 0.00 79 1008.2
20260505223505 78 229 2.6 7.0 0.00 0.00 0.00 79 1008.2
20260505223008 78 247 2.6 6.1 0.00 0.00 0.00 79 1008.1
20260505222506 79 188 1.7 7.8 0.00 0.00 0.00 79 1008.1
20260505222008 79 240 1.7 7.8 0.00 0.00 0.00 79 1008.1
20260505221007 79 154 1.7 8.7 0.00 0.00 0.00 79 1008.1
20260505220505 79 158 2.6 8.7 0.00 0.00 0.00 78 1008.1
20260505220008 79 198 2.6 13.0 0.00 0.00 0.00 79 1008.1
20260505215508 79 197 2.6 13.0 0.00 0.00 0.00 79 1008.1
20260505215007 79 45 2.6 12.2 0.00 0.00 0.00 79 1008.2
20260505214506 78 171 3.5 7.8 0.00 0.00 0.00 79 1008.1
20260505214007 78 242 2.6 8.7 0.00 0.00 0.00 79 1008.2
20260505213506 78 194 2.6 7.0 0.00 0.00 0.00 79 1008.2
20260505213009 78 160 3.5 9.6 0.00 0.00 0.00 80 1008.2
20260505212507 78 102 3.5 8.7 0.00 0.00 0.00 80 1008.3
20260505212006 78 153 2.6 7.0 0.00 0.00 0.00 80 1008.5
20260505211506 78 273 2.6 7.0 0.00 0.00 0.00 81 1008.6
20260505211007 77 239 1.7 7.0 0.00 0.00 0.00 81 1008.7
20260505210010 77 211 1.7 7.0 0.00 0.00 0.00 82 1008.9
20260505205506 77 169 1.7 7.0 0.00 0.00 0.00 82 1008.9
20260505205009 76 245 1.7 3.5 0.00 0.00 0.00 82 1008.9
20260505204506 76 211 1.7 6.1 0.00 0.00 0.00 82 1009.0
20260505204009 76 219 1.7 7.0 0.00 0.00 0.00 82 1009.0
20260505203507 76 274 1.7 7.8 0.00 0.00 0.00 82 1009.2
20260505203008 76 220 0.9 7.8 0.00 0.00 0.00 82 1009.2
20260505202506 76 184 0.9 5.2 0.00 0.00 0.00 81 1009.2
20260505202009 76 224 1.7 4.3 0.00 0.00 0.00 81 1009.3
20260505201507 76 253 1.7 7.0 0.00 0.00 0.00 81 1009.3
20260505201008 76 186 2.6 9.6 0.00 0.00 0.00 81 1009.5
20260505200508 76 188 2.6 9.6 0.00 0.00 0.00 81 1009.2
20260505195506 76 177 1.7 5.2 0.00 0.00 0.00 80 1009.5
20260505195007 76 172 1.7 5.2 0.00 0.00 0.00 80 1009.5
20260505194507 77 242 2.6 6.1 0.00 0.00 0.00 80 1009.5
20260505194008 77 200 2.6 9.6 0.00 0.00 0.00 79 1009.7
20260505193506 77 235 2.6 9.6 0.00 0.00 0.00 79 1009.5
20260505193009 77 264 1.7 4.3 0.00 0.00 0.00 79 1009.5
20260505192505 77 159 1.7 6.1 0.00 0.00 0.00 79 1009.4
20260505192007 77 235 2.6 8.7 0.00 0.00 0.00 79 1009.5
20260505191508 77 70 1.7 8.7 0.00 0.00 0.00 78 1009.5
20260505191008 77 317 1.7 8.7 0.00 0.00 0.00 79 1009.5
20260505190506 77 124 2.6 8.7 0.00 0.00 0.00 79 1009.5
20260505190011 77 192 2.6 7.0 0.00 0.00 0.00 79 1009.5
20260505185008 77 230 2.6 6.1 0.00 0.00 0.00 79 1009.8
20260505184509 77 206 2.6 7.0 0.00 0.00 0.00 79 1009.8
20260505184007 76 146 1.7 5.2 0.00 0.00 0.00 79 1009.7
20260505183507 76 229 1.7 5.2 0.00 0.00 0.00 79 1009.8
20260505183010 76 262 1.7 7.8 0.00 0.00 0.00 79 1009.8
20260505182508 76 192 1.7 4.3 0.00 0.00 0.00 79 1009.8
20260505181507 76 171 1.7 7.0 0.00 0.00 0.00 79 1009.8
20260505181007 76 259 1.7 7.0 0.00 0.00 0.00 79 1009.9
20260505180507 76 226 1.7 6.1 0.00 0.00 0.00 79 1010.0
20260505180012 76 173 1.7 6.1 0.00 0.00 0.00 79 1009.9
20260505175506 76 114 2.6 6.1 0.00 0.00 0.00 79 1010.1
20260505174007 76 196 2.6 9.6 0.00 0.00 0.00 79 1010.2
20260505173508 76 188 2.6 7.8 0.00 0.00 0.00 80 1010.2
20260505172508 76 269 1.7 7.0 0.00 0.00 0.00 81 1010.1
20260505171509 75 74 0.9 3.5 0.00 0.00 0.00 82 1010.1
20260505171009 74 188 0.9 2.6 0.00 0.00 0.00 83 1010.2
20260505170010 74 150 0.9 3.5 0.00 0.00 0.00 82 1010.4
20260505165507 74 160 1.7 2.6 0.00 0.00 0.00 82 1010.4
20260505165007 74 175 0.9 3.5 0.00 0.00 0.00 83 1010.3
20260505164508 73 241 0.9 6.1 0.00 0.00 0.00 83 1010.3
20260505164009 73 201 0.9 6.1 0.00 0.00 0.00 83 1010.4
20260505163506 73 247 1.7 6.1 0.00 0.00 0.00 82 1010.5
20260505163009 73 196 2.6 7.8 0.00 0.00 0.00 82 1010.6
20260505162506 73 232 1.7 7.8 0.00 0.00 0.00 82 1010.6
20260505162007 73 241 1.7 6.1 0.00 0.00 0.00 82 1010.4
20260505161507 73 225 1.7 3.5 0.00 0.00 0.00 82 1010.3
20260505160507 73 250 2.6 7.8 0.00 0.00 0.00 82 1010.1
20260505153010 72 205 1.7 6.1 0.00 0.00 0.00 83 1010.1
20260505152007 71 150 1.7 3.5 0.00 0.00 0.00 84 1010.4
20260505151507 71 238 1.7 6.1 0.00 0.00 0.00 84 1010.4
20260505151008 71 225 1.7 6.1 0.00 0.00 0.00 84 1010.5
20260505150507 71 251 1.7 6.1 0.00 0.00 0.00 84 1010.5
20260505140506 68 15 0.9 4.3 0.00 0.00 0.00 85 1010.4